TimeEST,TemperatureF,Dew PointF,Humidity,Sea Level PressureIn,VisibilityMPH,Wind Direction,Wind SpeedMPH,Gust SpeedMPH,PrecipitationIn,Events,Conditions,WindDirDegrees,DateUTC
12:14 AM,35.6,21.2,56,30.00,10.0,WNW,17.3,20.7,N/A,,Overcast,300,2012-11-24 05:14:00
12:34 AM,35.6,21.2,56,30.00,10.0,WNW,10.4,18.4,N/A,,Overcast,300,2012-11-24 05:34:00
12:54 AM,33.8,21.2,60,30.00,10.0,WNW,9.2,-,N/A,,Overcast,300,2012-11-24 05:54:00
1:14 AM,33.8,21.2,60,30.00,10.0,WNW,13.8,19.6,N/A,,Overcast,300,2012-11-24 06:14:00
1:34 AM,33.8,21.2,60,30.00,10.0,WNW,15.0,18.4,N/A,,Overcast,300,2012-11-24 06:34:00
1:54 AM,33.8,19.4,56,30.00,10.0,WNW,16.1,21.9,N/A,,Overcast,300,2012-11-24 06:54:00
2:14 AM,33.8,19.4,56,30.01,10.0,WNW,10.4,-,N/A,,Overcast,300,2012-11-24 07:14:00
2:34 AM,33.8,19.4,56,30.01,10.0,WNW,10.4,19.6,N/A,,Overcast,290,2012-11-24 07:34:00
3:14 AM,33.8,21.2,60,30.01,10.0,West,8.1,-,N/A,,Overcast,270,2012-11-24 08:14:00
3:34 AM,33.8,21.2,60,30.02,10.0,West,11.5,-,N/A,,Overcast,280,2012-11-24 08:34:00
3:54 AM,33.8,19.4,56,30.02,10.0,WNW,13.8,19.6,N/A,,Overcast,290,2012-11-24 08:54:00
4:14 AM,33.8,19.4,56,30.02,10.0,WNW,10.4,-,N/A,,Overcast,290,2012-11-24 09:14:00
4:54 AM,32.0,19.4,60,30.02,10.0,WNW,15.0,20.7,N/A,,Overcast,290,2012-11-24 09:54:00
5:14 AM,32.0,19.4,60,30.03,10.0,WNW,9.2,21.9,N/A,,Overcast,290,2012-11-24 10:14:00
5:34 AM,32.0,19.4,60,30.03,10.0,WNW,11.5,18.4,N/A,,Overcast,290,2012-11-24 10:34:00
5:54 AM,32.0,19.4,60,30.04,10.0,WNW,11.5,19.6,N/A,,Overcast,290,2012-11-24 10:54:00
6:14 AM,32.0,19.4,60,30.04,10.0,West,8.1,-,N/A,,Overcast,280,2012-11-24 11:14:00
6:34 AM,32.0,19.4,60,30.05,10.0,WNW,16.1,-,N/A,,Overcast,300,2012-11-24 11:34:00
6:54 AM,32.0,19.4,60,30.05,10.0,West,11.5,19.6,N/A,,Overcast,280,2012-11-24 11:54:00
7:14 AM,32.0,19.4,60,30.05,10.0,WNW,13.8,20.7,N/A,,Overcast,290,2012-11-24 12:14:00
7:34 AM,32.0,17.6,55,30.06,10.0,WNW,12.7,18.4,N/A,,Overcast,290,2012-11-24 12:34:00
7:54 AM,32.0,17.6,55,30.06,10.0,WNW,11.5,17.3,N/A,,Overcast,290,2012-11-24 12:54:00
8:14 AM,32.0,19.4,60,30.06,10.0,West,9.2,17.3,N/A,,Overcast,280,2012-11-24 13:14:00
8:34 AM,32.0,19.4,60,30.06,10.0,West,11.5,16.1,N/A,,Overcast,270,2012-11-24 13:34:00
8:55 AM,33.8,19.4,56,30.07,10.0,WNW,9.2,16.1,N/A,,Overcast,290,2012-11-24 13:55:00
9:14 AM,33.8,17.6,52,30.08,10.0,WNW,13.8,18.4,N/A,,Mostly Cloudy,300,2012-11-24 14:14:00
9:34 AM,33.8,17.6,52,30.08,10.0,WNW,15.0,24.2,N/A,,Mostly Cloudy,300,2012-11-24 14:34:00
9:54 AM,33.8,19.4,56,30.08,10.0,WNW,13.8,24.2,N/A,,Overcast,300,2012-11-24 14:54:00
10:14 AM,33.8,17.6,52,30.09,10.0,WNW,11.5,20.7,N/A,,Overcast,300,2012-11-24 15:14:00
10:34 AM,33.8,17.6,52,30.09,10.0,NW,12.7,23.0,N/A,,Overcast,310,2012-11-24 15:34:00
10:54 AM,33.8,17.6,52,30.09,10.0,NW,13.8,21.9,N/A,,Overcast,310,2012-11-24 15:54:00
11:14 AM,33.8,17.6,52,30.09,10.0,NW,16.1,21.9,N/A,,Overcast,310,2012-11-24 16:14:00
11:34 AM,33.8,17.6,52,30.08,10.0,WNW,12.7,21.9,N/A,,Overcast,290,2012-11-24 16:34:00
11:54 AM,33.8,17.6,52,30.08,10.0,WNW,16.1,24.2,N/A,,Overcast,300,2012-11-24 16:54:00
12:14 PM,33.8,17.6,52,30.08,10.0,NW,17.3,21.9,N/A,,Overcast,320,2012-11-24 17:14:00
12:34 PM,33.8,17.6,52,30.08,10.0,WNW,17.3,-,N/A,,Overcast,300,2012-11-24 17:34:00
12:54 PM,33.8,17.6,52,30.07,10.0,WNW,12.7,21.9,N/A,,Overcast,300,2012-11-24 17:54:00
1:14 PM,33.8,17.6,52,30.07,10.0,NW,15.0,-,N/A,,Overcast,310,2012-11-24 18:14:00
1:34 PM,33.8,19.4,56,30.06,10.0,NW,12.7,-,N/A,,Overcast,310,2012-11-24 18:34:00
1:54 PM,33.8,17.6,52,30.06,10.0,WNW,12.7,19.6,N/A,,Overcast,300,2012-11-24 18:54:00
2:14 PM,33.8,17.6,52,30.06,10.0,WNW,13.8,-,N/A,,Overcast,290,2012-11-24 19:14:00
2:34 PM,33.8,17.6,52,30.07,10.0,West,12.7,-,N/A,,Overcast,280,2012-11-24 19:34:00
2:54 PM,33.8,17.6,52,30.07,10.0,WNW,15.0,19.6,N/A,,Overcast,290,2012-11-24 19:54:00
3:14 PM,33.8,17.6,52,30.07,10.0,West,15.0,-,N/A,,Overcast,280,2012-11-24 20:14:00
3:34 PM,33.8,17.6,52,30.07,10.0,WNW,12.7,-,N/A,,Overcast,290,2012-11-24 20:34:00
3:54 PM,33.8,15.8,48,30.07,10.0,WNW,15.0,-,N/A,,Overcast,290,2012-11-24 20:54:00
4:14 PM,33.8,17.6,52,30.07,10.0,WNW,12.7,20.7,N/A,,Overcast,290,2012-11-24 21:14:00
4:34 PM,33.8,17.6,52,30.07,10.0,West,11.5,-,N/A,,Overcast,280,2012-11-24 21:34:00
4:55 PM,32.0,17.6,55,30.07,10.0,WNW,11.5,16.1,N/A,,Overcast,290,2012-11-24 21:55:00
5:14 PM,32.0,17.6,55,30.08,10.0,West,10.4,16.1,N/A,,Overcast,280,2012-11-24 22:14:00
5:34 PM,32.0,17.6,55,30.08,10.0,NW,11.5,18.4,N/A,,Overcast,310,2012-11-24 22:34:00
5:54 PM,32.0,17.6,55,30.08,10.0,WNW,8.1,-,N/A,,Overcast,300,2012-11-24 22:54:00
6:14 PM,32.0,17.6,55,30.09,10.0,WNW,6.9,-,N/A,,Overcast,290,2012-11-24 23:14:00
6:35 PM,32.0,17.6,55,30.09,10.0,West,4.6,-,N/A,,Overcast,280,2012-11-24 23:35:00
6:54 PM,32.0,17.6,55,30.08,10.0,WNW,9.2,-,N/A,,Overcast,290,2012-11-24 23:54:00
7:14 PM,32.0,17.6,55,30.08,10.0,West,6.9,-,N/A,,Overcast,280,2012-11-25 00:14:00
7:34 PM,32.0,17.6,55,30.09,10.0,West,8.1,-,N/A,,Overcast,270,2012-11-25 00:34:00
7:54 PM,32.0,17.6,55,30.08,10.0,West,9.2,16.1,N/A,,Overcast,280,2012-11-25 00:54:00
8:14 PM,30.2,17.6,60,30.07,10.0,WNW,4.6,-,N/A,,Overcast,300,2012-11-25 01:14:00
8:34 PM,30.2,17.6,60,30.07,10.0,West,6.9,-,N/A,,Overcast,260,2012-11-25 01:34:00
8:54 PM,30.2,17.6,60,30.06,10.0,West,9.2,-,N/A,,Overcast,280,2012-11-25 01:54:00
9:14 PM,30.2,17.6,60,30.06,10.0,West,4.6,-,N/A,,Overcast,270,2012-11-25 02:14:00
9:34 PM,30.2,17.6,60,30.05,10.0,West,5.8,-,N/A,,Overcast,280,2012-11-25 02:34:00
9:54 PM,30.2,17.6,60,30.05,10.0,West,6.9,-,N/A,,Overcast,270,2012-11-25 02:54:00
10:14 PM,30.2,17.6,60,30.04,10.0,West,8.1,-,N/A,,Overcast,260,2012-11-25 03:14:00
10:34 PM,30.2,17.6,60,30.03,10.0,West,3.5,-,N/A,,Overcast,260,2012-11-25 03:34:00
10:54 PM,30.2,19.4,64,30.04,10.0,West,5.8,-,N/A,,Overcast,260,2012-11-25 03:54:00
11:14 PM,30.2,19.4,64,30.03,10.0,West,5.8,-,N/A,,Overcast,260,2012-11-25 04:14:00
11:34 PM,30.2,19.4,64,30.03,10.0,WSW,5.8,-,N/A,,Overcast,240,2012-11-25 04:34:00
11:54 PM,30.2,19.4,64,30.03,10.0,WSW,8.1,-,N/A,,Overcast,250,2012-11-25 04:54:00